ONEWEB-0211 (48767 NORAD) Tracking and Keplerian Element Data

This shows tracking and keplerian element data for the satellite.

Feedback or suggestion? Click here.




ElementValue
Catalog48767
NameONEWEB-0211
Epoch Orbit188
Epoch Day170.58334491
Epoch Year2021
RAAN268.8617
Inclination87.4081
Eccentricity0.000679
Argument of Perigee178.4121
Mean Anonmoly358.7831
Mean Motion15.35779836
Decay Rate-0.00898391
L11 48767U 21045A 21170.58334491 -.00898391 00000-0 -28121-1 0 9997
L22 48767 87.4081 268.8617 0006790 178.4121 358.7831 15.35779836 1882

Live tracking and technical data element details for ONEWEB-0211 (NORAD 48767). ONEWEB-0211 can be tracked NOW for your location showing map with azimuth and elevation plus other details from your city location.

Track the satellite on the map from your city or location and see movement details for azimuth, elevation, latitude, longitude, range, height, and movement on the map or in text.







IsCatalogInMostPopularTable: catalog: 48767, numindb: 2
Update: records affected: 1



GetName: 48767 ONEWEB-0211

Hit Count: updated at: Mon, 21 Jun 2021 04:32:29 GMT